Change the Weather History Date:

Wednesday, January 9, 2013

  Actual Average Record
Temperature  
Mean Temperature 21 °F 23 °F  
Max Temperature 36 °F 35 °F 51 °F (1948)
Min Temperature 6 °F 11 °F -18 °F (1937)
Degree Days  
Heating Degree Days 44 42  
Month to date heating degree days 470 378  
Since 1 July heating degree days 2985 3142  
Cooling Degree Days 0 0  
Month to date cooling degree days 0 0  
Year to date cooling degree days 0 0  
Moisture  
Dew Point 10 °F    
Average Humidity 69    
Maximum Humidity 91    
Minimum Humidity 47    
Precipitation  
Precipitation 0.00 in 0.03 in 0.25 in (1974)
Month to date precipitation T 0.28  
Year to date precipitation T 0.28  
Sea Level Pressure  
Sea Level Pressure 30.48 in    
Wind  
Wind Speed 1 mph (East)    
Max Wind Speed 7 mph    
Max Gust Speed 9 mph    
Visibility 10 miles    
Events      
T = Trace of Precipitation, MM = Missing Value Source: NWS Daily Summary

Daily Weather History Graph

Daily Weather History Graph

Search for Another Location

Airport or City:

Trip Planner

Search our weather history database for the weather conditions in past years. The results will help you decide how hot, cold, wet, or windy it might be!

Date:

Astronomy

Jan. 09, 2013 Rise Set
Actual Time 7:31 AM MST 5:05 PM MST
Civil Twilight 7:01 AM MST 5:35 PM MST
Nautical Twilight 6:27 AM MST 6:08 PM MST
Astronomical Twilight 5:55 AM MST 6:41 PM MST
Moon 5:13 AM MST (1/9) 3:10 PM MST (1/9)
Length of Visible Light 10h 33m
Length of Day
9h 34m
Waning Crescent, 6% of the Moon is Illuminated
Jan 9
Waning Crescent
Jan 11
New
Jan 18
First Quarter
Jan 26
Full
Feb 3
Last Quarter

Hourly Weather History & Observations

Time (MST) Temp. Windchill Dew Point Humidity Pressure Visibility Wind Dir Wind Speed Gust Speed Precip Events Conditions
12:53 AM 9.0 °F 0.6 °F 6.1 °F 88% 30.59 in 10.0 mi East 4.6 mph - N/A   Clear
1:53 AM 15.1 °F 9.4 °F 9.0 °F 77% 30.54 in 10.0 mi East 3.5 mph - N/A   Clear
2:53 AM 12.0 °F 4.1 °F 8.1 °F 84% 30.55 in 10.0 mi SSE 4.6 mph - N/A   Clear
3:53 AM 10.0 °F 3.6 °F 5.0 °F 80% 30.56 in 10.0 mi NW 3.5 mph - N/A   Clear
4:53 AM 10.0 °F - 6.1 °F 84% 30.57 in 10.0 mi Calm Calm - N/A   Clear
5:53 AM 8.1 °F -2.0 °F 3.9 °F 83% 30.60 in 10.0 mi East 5.8 mph - N/A   Clear
6:53 AM 8.1 °F - 3.9 °F 83% 30.61 in 10.0 mi Calm Calm - N/A   Clear
8:53 AM 12.0 °F - 8.1 °F 84% 30.63 in 10.0 mi Calm Calm - N/A   Clear
9:53 AM 16.0 °F - 10.0 °F 77% 30.62 in 10.0 mi Calm Calm - N/A   Clear
10:53 AM 23.0 °F - 12.9 °F 65% 30.58 in 10.0 mi Calm Calm - N/A   Clear
11:53 AM 27.0 °F - 14.0 °F 58% 30.51 in 10.0 mi Calm Calm - N/A   Clear
12:53 PM 33.1 °F 30.0 °F 16.0 °F 50% 30.45 in 10.0 mi NNE 3.5 mph - N/A   Clear
1:53 PM 34.0 °F - 16.0 °F 48% 30.41 in 10.0 mi Calm Calm - N/A   Clear
2:53 PM 34.0 °F - 16.0 °F 48% 30.41 in 10.0 mi Calm Calm - N/A   Clear
3:53 PM 34.0 °F - 17.1 °F 50% 30.41 in 10.0 mi Calm Calm - N/A   Clear
4:53 PM 28.0 °F - 16.0 °F 61% 30.40 in 10.0 mi Calm Calm - N/A   Clear
5:53 PM 23.0 °F - 12.9 °F 65% 30.42 in 10.0 mi Calm Calm - N/A   Clear
6:53 PM 19.9 °F - 10.9 °F 68% 30.42 in 10.0 mi Calm Calm - N/A   Clear
7:53 PM 19.0 °F - 10.9 °F 71% 30.40 in 10.0 mi Calm Calm - N/A   Clear
8:53 PM 16.0 °F - 10.0 °F 77% 30.39 in 10.0 mi Calm Calm - N/A   Clear
9:53 PM 14.0 °F - 9.0 °F 80% 30.37 in 10.0 mi Calm Calm - N/A   Clear
10:53 PM 12.0 °F 4.1 °F 7.0 °F 80% 30.33 in 10.0 mi East 4.6 mph - N/A   Clear
11:53 PM 10.0 °F - 6.1 °F 84% 30.27 in 10.0 mi Calm Calm - N/A   Clear